DW5212 Weather Reports


Display with metric or nautical units.
time (UTC)temp
F
wind
direction
speed
MPH
gust
MPH
rain 1hr
in
rain 24hr
in
rain mn
in
humidity
%
barometer
mb
20200814210208 89 146 1.0 3.0 0.00 0.00 0.00 70 1011.4
20200814205500 89 273 1.0 4.0 0.00 0.00 0.00 68 1011.4
20200814204804 88 210 0.0 2.0 0.00 0.00 0.00 69 1011.5
20200814204101 88 146 0.0 2.0 0.00 0.00 0.00 68 1011.7
20200814203400 88 40 1.0 3.0 0.00 0.00 0.00 70 1011.8
20200814202700 90 161 1.0 4.0 0.00 0.00 0.00 69 1012.0
20200814202003 87 130 0.0 2.0 0.00 0.00 0.00 69 1012.2
20200814201300 88 102 1.0 2.0 0.00 0.00 0.00 70 1012.3
20200814200600 88 78 1.0 3.0 0.00 0.00 0.00 71 1012.7
20200814195900 87 260 0.0 1.0 0.00 0.00 0.00 75 1012.8
20200814195203 86 130 0.0 1.0 0.00 0.00 0.00 75 1013.3
20200814194509 85 129 0.0 1.0 0.00 0.00 0.00 76 1013.5
20200814193800 85 129 0.0 3.0 0.00 0.00 0.00 75 1013.6
20200814193104 86 129 2.0 3.0 0.00 0.00 0.00 72 1013.7
20200814192402 87 17 1.0 2.0 0.00 0.00 0.00 72 1013.8
20200814191700 86 26 1.0 3.0 0.00 0.00 0.00 76 1013.8
20200814191000 85 5 1.0 2.0 0.00 0.00 0.00 79 1014.1
20200814190300 84 63 0.0 1.0 0.00 0.00 0.00 80 1014.0
20200814185603 83 64 0.0 0.0 0.00 0.00 0.00 82 1014.2
20200814184902 83 63 0.0 0.0 0.00 0.00 0.00 81 1014.4
20200814184200 84 63 0.0 0.0 0.00 0.00 0.00 80 1014.4
20200814183500 84 63 0.0 0.0 0.00 0.00 0.00 78 1014.4
20200814182803 84 63 0.0 1.0 0.00 0.00 0.00 78 1014.4
20200814182100 85 63 0.0 1.0 0.00 0.00 0.00 76 1014.3
20200814181400 85 63 0.0 0.0 0.00 0.00 0.00 77 1014.3
20200814180702 85 63 0.0 1.0 0.00 0.00 0.00 76 1014.4
20200814180007 85 63 0.0 2.0 0.00 0.00 0.00 74 1014.6
20200814175301 86 59 1.0 1.0 0.00 0.00 0.00 74 1014.6
20200814174600 86 24 1.0 3.0 0.00 0.00 0.00 72 1014.8
20200814173901 87 84 1.0 4.0 0.00 0.00 0.00 72 1014.7
20200814173203 86 16 1.0 4.0 0.00 0.00 0.00 75 1014.9
20200814172502 86 207 1.0 5.0 0.00 0.00 0.00 75 1015.0
20200814171800 86 30 2.0 4.0 0.00 0.00 0.00 74 1015.0
20200814171100 86 36 1.0 3.0 0.00 0.00 0.00 74 1014.9
20200814170402 86 9 2.0 4.0 0.00 0.00 0.00 75 1015.0
20200814165701 87 290 1.0 4.0 0.00 0.00 0.00 74 1015.3
20200814165003 86 325 1.0 6.0 0.00 0.00 0.00 73 1015.3
20200814164304 87 42 0.0 2.0 0.00 0.00 0.00 72 1015.4
20200814163603 87 33 0.0 2.0 0.00 0.00 0.00 73 1015.4
20200814162903 86 9 1.0 3.0 0.00 0.00 0.00 74 1015.6
20200814162200 85 347 1.0 4.0 0.00 0.00 0.00 74 1015.5
20200814161501 86 272 2.0 4.0 0.00 0.00 0.00 73 1015.4
20200814160802 86 279 1.0 5.0 0.00 0.00 0.00 74 1015.5
20200814160104 85 194 0.0 3.0 0.00 0.00 0.00 74 1015.3
20200814155401 86 344 1.0 8.0 0.00 0.00 0.00 76 1015.3
20200814154700 86 279 2.0 5.0 0.00 0.00 0.00 74 1015.0
20200814154006 85 329 1.0 3.0 0.00 0.00 0.00 77 1015.0
20200814153301 86 223 1.0 5.0 0.00 0.00 0.00 74 1014.8
20200814152600 87 218 2.0 6.0 0.00 0.00 0.00 73 1014.7
20200814151900 85 307 1.0 6.0 0.00 0.00 0.00 76 1014.6
20200814151202 84 243 0.0 2.0 0.00 0.00 0.00 80 1014.7
20200814150503 84 224 1.0 3.0 0.00 0.00 0.00 79 1014.2
20200814145800 83 131 1.0 4.0 0.00 0.00 0.00 80 1014.1
20200814145101 84 211 1.0 3.0 0.00 0.00 0.00 78 1014.0
20200814144403 84 261 1.0 8.0 0.00 0.00 0.00 80 1014.0
20200814143700 83 237 1.0 3.0 0.00 0.00 0.00 81 1013.9
20200814143003 83 257 1.0 5.0 0.00 0.00 0.00 82 1013.8
20200814142300 83 188 2.0 5.0 0.00 0.00 0.00 82 1013.8
20200814141603 82 252 3.0 7.0 0.00 0.00 0.00 84 1013.9
20200814140900 82 236 1.0 4.0 0.00 0.00 0.00 85 1013.9
20200814140200 81 259 2.0 4.0 0.00 0.00 0.00 88 1013.9
20200814135500 80 267 1.0 4.0 0.00 0.00 0.00 89 1013.8
20200814134803 80 249 1.0 4.0 0.00 0.00 0.00 90 1013.8
20200814134100 80 212 2.0 7.0 0.00 0.00 0.00 92 1013.6
20200814133402 79 208 2.0 5.0 0.00 0.00 0.00 93 1013.7
20200814132700 79 173 2.0 4.0 0.00 0.00 0.00 94 1013.7
20200814132005 78 254 1.0 2.0 0.00 0.00 0.00 95 1013.7
20200814131300 77 236 0.0 2.0 0.00 0.00 0.00 96 1013.7
20200814130600 77 224 1.0 2.0 0.00 0.00 0.00 96 1013.7
20200814125900 76 198 1.0 2.0 0.00 0.00 0.00 96 1013.6
20200814125203 76 244 0.0 1.0 0.00 0.00 0.00 96 1013.6
20200814124501 75 244 0.0 1.0 0.00 0.00 0.00 96 1013.7
20200814123800 75 252 0.0 2.0 0.00 0.00 0.00 96 1013.7
20200814123100 75 252 0.0 1.0 0.00 0.00 0.00 96 1013.6
20200814122402 75 252 0.0 1.0 0.00 0.00 0.00 96 1013.5
20200814121700 75 253 0.0 1.0 0.00 0.00 0.00 96 1013.4
20200814121006 75 253 0.0 1.0 0.00 0.00 0.00 96 1013.3
20200814120301 75 229 0.0 2.0 0.00 0.00 0.00 96 1013.1
20200814115603 75 227 0.0 3.0 0.00 0.00 0.00 95 1012.9
20200814114901 74 240 0.0 1.0 0.00 0.00 0.00 95 1012.9
20200814114203 74 238 0.0 2.0 0.00 0.00 0.00 95 1012.8
20200814113501 75 224 1.0 3.0 0.00 0.00 0.00 95 1012.7
20200814112803 75 261 1.0 3.0 0.00 0.00 0.00 95 1012.6
20200814112104 75 242 1.0 2.0 0.00 0.00 0.00 95 1012.6
20200814111400 75 267 0.0 2.0 0.00 0.00 0.00 94 1012.6
20200814110700 75 227 0.0 2.0 0.00 0.00 0.00 94 1012.4
20200814110004 74 257 0.0 1.0 0.00 0.00 0.00 94 1012.4
20200814105305 74 257 0.0 2.0 0.00 0.00 0.00 94 1012.4
20200814104608 74 238 0.0 2.0 0.00 0.00 0.00 94 1012.4
20200814103902 74 265 0.0 2.0 0.00 0.00 0.00 94 1012.5
20200814103203 74 269 1.0 2.0 0.00 0.00 0.00 94 1012.7
20200814102501 74 255 1.0 2.0 0.00 0.00 0.00 94 1012.6
20200814101801 74 215 0.0 2.0 0.00 0.00 0.00 94 1012.7
20200814101103 74 215 0.0 2.0 0.00 0.00 0.00 94 1012.8
20200814100402 74 265 0.0 0.0 0.00 0.00 0.00 93 1012.7
20200814095701 74 266 0.0 1.0 0.00 0.00 0.00 93 1012.8
20200814095004 74 265 0.0 3.0 0.00 0.00 0.00 93 1012.8
20200814094301 74 238 0.0 3.0 0.00 0.00 0.00 93 1012.8
20200814093605 74 257 0.0 2.0 0.00 0.00 0.00 93 1012.9
20200814092900 74 256 0.0 2.0 0.00 0.00 0.00 93 1012.9
20200814092201 74 260 1.0 2.0 0.00 0.00 0.00 93 1013.0
20200814091500 74 238 0.0 3.0 0.00 0.00 0.00 93 1013.1
20200814090812 74 246 0.0 3.0 0.00 0.00 0.00 93 1013.0
20200814090100 74 233 1.0 3.0 0.00 0.00 0.00 93 1013.1
20200814085400 74 231 0.0 1.0 0.00 0.00 0.00 92 1013.2
20200814084701 74 231 0.0 1.0 0.00 0.00 0.00 92 1013.1
20200814084003 74 269 0.0 1.0 0.00 0.00 0.00 92 1013.2
20200814083300 74 270 0.0 0.0 0.00 0.00 0.00 92 1013.2
20200814082601 74 270 0.0 2.0 0.00 0.00 0.00 92 1013.3
20200814081900 74 270 0.0 2.0 0.00 0.00 0.00 92 1013.3
20200814081202 74 273 0.0 0.0 0.00 0.00 0.00 92 1013.3
20200814080500 74 273 0.0 0.0 0.00 0.00 0.00 92 1013.3
20200814075802 74 273 0.0 0.0 0.00 0.00 0.00 92 1013.4
20200814075101 75 273 0.0 0.0 0.00 0.00 0.00 92 1013.4
20200814074403 75 273 0.0 0.0 0.00 0.00 0.00 92 1013.5
20200814073702 75 273 0.0 1.0 0.00 0.00 0.00 92 1013.4
20200814073006 75 273 1.0 1.0 0.00 0.00 0.00 92 1013.4
20200814072301 75 273 0.0 2.0 0.00 0.00 0.00 92 1013.5
20200814071605 75 271 1.0 2.0 0.00 0.00 0.00 92 1013.5
20200814070903 75 267 0.0 2.0 0.00 0.00 0.00 92 1013.5
20200814070201 74 259 0.0 3.0 0.00 0.00 0.00 92 1013.7
20200814065505 74 248 1.0 4.0 0.00 0.00 0.00 92 1013.6
20200814064805 74 280 1.0 3.0 0.00 0.00 0.00 92 1013.5
20200814064103 74 257 1.0 4.0 0.00 0.00 0.00 92 1013.7
20200814063403 74 286 1.0 3.0 0.00 0.00 0.00 91 1013.7
20200814062701 74 267 0.0 3.0 0.00 0.00 0.00 91 1013.8
20200814062009 74 231 0.0 0.0 0.00 0.00 0.00 90 1013.8
20200814061301 74 231 0.0 0.0 0.00 0.00 0.00 90 1013.7
20200814060601 74 231 0.0 0.0 0.00 0.00 0.00 90 1013.7
20200814055903 74 231 0.0 0.0 0.00 0.00 0.00 89 1013.8
20200814055205 74 231 0.0 0.0 0.00 0.00 0.00 89 1013.8
20200814054508 74 231 0.0 0.0 0.00 0.00 0.00 89 1013.7
20200814053801 74 230 0.0 0.0 0.00 0.00 0.00 88 1013.8
20200814053101 74 231 0.0 0.0 0.00 0.00 0.00 88 1013.9
20200814052405 75 231 0.0 0.0 0.00 0.00 0.00 88 1013.9
20200814051701 75 231 0.0 0.0 0.00 0.00 0.00 88 1013.9
20200814051008 75 231 0.0 0.0 0.00 0.00 0.00 88 1014.0
20200814050301 75 231 0.0 0.0 0.00 0.00 0.00 87 1014.2
20200814045606 75 231 0.0 0.0 0.00 0.00 0.00 88 1014.0
20200814044902 75 231 0.0 0.0 0.00 0.00 0.00 87 1014.0
20200814044202 75 231 0.0 0.0 0.00 0.00 0.00 87 1013.9
20200814043502 75 231 0.0 0.0 0.00 0.00 0.00 87 1013.9
20200814042804 76 231 0.0 0.0 0.00 0.00 0.00 86 1013.9
20200814042101 76 230 0.0 0.0 0.00 0.00 0.00 86 1013.9
20200814041401 76 230 0.0 0.0 0.00 0.00 0.00 86 1013.9
20200814040702 76 232 0.0 0.0 0.00 0.00 0.00 86 1014.1
20200814040008 76 231 0.0 0.0 0.00 0.00 0.00 86 1013.9
20200814035305 76 231 0.0 0.0 0.00 0.00 0.00 85 1014.0
20200814034601 76 231 0.0 0.0 0.00 0.00 0.00 85 1013.8
20200814033901 76 186 0.0 0.0 0.00 0.00 0.00 85 1014.0
20200814033204 77 186 0.0 0.0 0.00 0.00 0.00 84 1013.9
20200814032501 77 186 0.0 0.0 0.00 0.00 0.00 85 1014.0
20200814031802 77 198 0.0 0.0 0.00 0.00 0.00 85 1013.9
20200814031102 77 199 0.0 0.0 0.00 0.00 0.00 84 1013.8
20200814030404 77 187 0.0 0.0 0.00 0.00 0.00 84 1013.7
20200814025700 77 187 0.0 3.0 0.00 0.00 0.00 84 1013.8
20200814025001 77 109 0.0 0.0 0.00 0.00 0.00 84 1013.6
20200814024300 77 109 0.0 0.0 0.00 0.00 0.00 83 1013.8
20200814023604 77 109 0.0 0.0 0.00 0.00 0.00 84 1013.7
20200814022901 78 109 0.0 0.0 0.00 0.00 0.00 84 1013.7
20200814022204 78 114 0.0 0.0 0.00 0.00 0.00 84 1013.7
20200814021506 78 179 0.0 0.0 0.00 0.00 0.00 84 1013.8
20200814020806 78 178 0.0 0.0 0.00 0.00 0.00 84 1013.8
20200814020101 78 180 0.0 0.0 0.00 0.00 0.00 83 1013.7
20200814015400 78 180 0.0 0.0 0.00 0.00 0.00 83 1013.8
20200814014702 79 180 0.0 0.0 0.00 0.00 0.00 83 1013.5
20200814014008 79 180 0.0 0.0 0.00 0.00 0.00 83 1013.6
20200814013300 79 180 0.0 0.0 0.00 0.00 0.00 83 1013.5
20200814012603 79 180 0.0 0.0 0.00 0.00 0.00 83 1013.6
20200814011901 79 179 0.0 0.0 0.00 0.00 0.00 84 1013.6
20200814011204 79 180 0.0 1.0 0.00 0.00 0.00 84 1013.5
20200814010507 79 180 1.0 1.0 0.00 0.00 0.00 83 1013.5
20200814005801 79 180 0.0 0.0 0.00 0.00 0.00 82 1013.3
20200814005101 79 180 0.0 1.0 0.00 0.00 0.00 82 1013.3
20200814004404 80 180 0.0 1.0 0.00 0.00 0.00 80 1013.2
20200814003701 80 281 0.0 1.0 0.00 0.00 0.00 79 1013.0
20200813230602 83 211 0.0 1.0 0.00 0.00 0.00 76 1012.6
20200813225900 82 211 0.0 4.0 0.00 0.00 0.00 76 1012.4
20200813225204 82 272 1.0 3.0 0.00 0.00 0.00 75 1012.4
20200813224504 83 217 1.0 4.0 0.00 0.00 0.00 74 1012.4
20200813223802 83 124 1.0 7.0 0.00 0.00 0.00 74 1012.6
20200813223101 83 22 1.0 3.0 0.00 0.00 0.00 73 1012.8
20200813222403 83 76 1.0 4.0 0.00 0.00 0.00 71 1012.7
20200813221701 84 215 2.0 3.0 0.00 0.00 0.00 72 1013.0
20200813221004 84 314 1.0 4.0 0.00 0.00 0.00 71 1013.1
20200813220303 84 253 1.0 3.0 0.00 0.00 0.00 70 1013.2
20200813215611 84 178 2.0 4.0 0.00 0.00 0.00 70 1013.3
20200813214900 85 161 1.0 3.0 0.00 0.00 0.00 68 1013.5
20200813214201 85 207 1.0 5.0 0.00 0.00 0.00 68 1013.7
20200813213501 84 252 3.0 5.0 0.00 0.00 0.00 67 1013.6
20200813212805 85 194 1.0 4.0 0.00 0.00 0.00 67 1013.6
20200813212101 84 78 1.0 6.0 0.00 0.00 0.00 68 1013.5
20200813211400 84 82 2.0 3.0 0.00 0.00 0.00 70 1013.4
20200813210659 83 69 1.0 3.0 0.00 0.00 0.00 72 1013.6